Weather History for Sioux Falls, SD

Change the Weather History Date:

Tuesday, September 30, 2014

  Actual Average Record
Temperature  
Mean Temperature 60 °F 55 °F  
Max Temperature 67 °F 67 °F 90 °F (1952)
Min Temperature 52 °F 42 °F 20 °F (1895)
Degree Days  
Heating Degree Days 5 11  
Month to date heating degree days 130 173  
Since 1 July heating degree days 148 204  
Cooling Degree Days 0 0  
Month to date cooling degree days 59 60  
Year to date cooling degree days 610 685  
Growing Degree Days 9 (Base 50)    
Moisture  
Dew Point 55 °F    
Average Humidity 87    
Maximum Humidity 93    
Minimum Humidity 80    
Precipitation  
Precipitation 0.17 in 0.08 in 2.71 in (1977)
Month to date precipitation 2.28 2.77  
Year to date precipitation 26.71 22.16  
Snow  
Snow 0.00 in 0.00 in T in (1985)
Month to date snowfall 0.0 T  
Since 1 July snowfall T T  
Since 1 September snowfall 0.0 T  
Snow Depth 0.00 in    
Sea Level Pressure  
Sea Level Pressure 29.82 in    
Wind  
Wind Speed 16 mph (SE)    
Max Wind Speed 29 mph    
Max Gust Speed 41 mph    
Visibility 9 miles    
Events Rain    
T = Trace of Precipitation, MM = Missing Value Source: NWS Daily Summary

Daily Weather History Graph

Daily Weather History Graph

Search for Another Location

Airport:

Trip Planner

Search our weather history database for the weather conditions in past years. The results will help you decide how hot, cold, wet, or windy it might be!

Date:

Astronomy

Sep. 30, 2014 Rise Set
Actual Time 7:23 AM CDT 7:09 PM CDT
Civil Twilight 6:54 AM CDT 7:38 PM CDT
Nautical Twilight 6:21 AM CDT 8:11 PM CDT
Astronomical Twilight 5:47 AM CDT 8:45 PM CDT
Moon 1:40 PM CDT (9/30) 11:33 PM CDT (9/30)
Length of Visible Light 12h 43m
Length of Day
11h 46m
Waxing Crescent, 38% of the Moon is Illuminated
Sep 30
Waxing Crescent
Oct 1
First Quarter
Oct 8
Full
Oct 15
Last Quarter
Oct 23
New

Hourly Weather History & Observations

Time (CDT) Temp. Dew Point Humidity Pressure Visibility Wind Dir Wind Speed Gust Speed Precip Events Conditions
12:56 AM 54.0 °F 50.0 °F 86% 30.00 in 10.0 mi East 11.5 mph - N/A   Overcast
1:56 AM 54.0 °F 50.0 °F 86% 29.98 in 10.0 mi ESE 13.8 mph - N/A   Mostly Cloudy
2:56 AM 53.1 °F 48.9 °F 86% 29.95 in 10.0 mi East 13.8 mph - N/A   Partly Cloudy
3:56 AM 53.1 °F 48.9 °F 86% 29.92 in 10.0 mi East 13.8 mph - N/A   Mostly Cloudy
4:56 AM 53.1 °F 48.9 °F 86% 29.91 in 10.0 mi East 15.0 mph - N/A   Overcast
5:56 AM 52.0 °F 48.9 °F 89% 29.88 in 10.0 mi ESE 13.8 mph - N/A   Mostly Cloudy
6:56 AM 52.0 °F 48.9 °F 89% 29.88 in 10.0 mi ESE 15.0 mph - N/A   Mostly Cloudy
7:10 AM 52.0 °F 48.9 °F 89% 29.87 in 10.0 mi ESE 12.7 mph - N/A   Mostly Cloudy
7:19 AM 52.0 °F 48.9 °F 89% 29.87 in 10.0 mi ESE 12.7 mph - N/A   Mostly Cloudy
7:56 AM 53.1 °F 50.0 °F 89% 29.87 in 10.0 mi ESE 13.8 mph - N/A   Overcast
8:56 AM 54.0 °F 51.1 °F 90% 29.84 in 10.0 mi SE 18.4 mph - N/A   Overcast
9:56 AM 57.0 °F 52.0 °F 83% 29.84 in 10.0 mi SE 16.1 mph 26.5 mph N/A   Overcast
10:15 AM 57.0 °F 53.1 °F 87% 29.83 in 10.0 mi SE 16.1 mph - N/A   Overcast
10:56 AM 57.9 °F 54.0 °F 87% 29.82 in 3.0 mi ESE 15.0 mph - 0.01 in Rain Rain
11:56 AM 57.9 °F 55.9 °F 93% 29.80 in 6.0 mi SE 18.4 mph - 0.07 in Rain Light Rain
12:31 PM 59.0 °F 57.0 °F 93% 29.80 in 2.5 mi SE 18.4 mph 27.6 mph 0.02 in Rain Rain
12:40 PM 60.1 °F 57.0 °F 90% 29.79 in 4.0 mi SSE 19.6 mph 29.9 mph 0.06 in Rain Light Rain
12:50 PM 60.8 °F 57.2 °F 88% 29.79 in 7.0 mi SE 20.7 mph 27.6 mph 0.07 in Rain Light Rain
12:56 PM 60.1 °F 57.9 °F 93% 29.79 in 5.0 mi SE 18.4 mph 26.5 mph 0.07 in Rain Light Rain
1:07 PM 61.0 °F 57.9 °F 90% 29.78 in 5.0 mi SE 18.4 mph 24.2 mph 0.01 in Rain Light Rain
1:56 PM 63.0 °F 60.1 °F 90% 29.75 in 10.0 mi SSE 15.0 mph 26.5 mph 0.02 in   Overcast
2:56 PM 64.9 °F 61.0 °F 87% 29.73 in 10.0 mi SSE 15.0 mph 26.5 mph N/A   Overcast
3:18 PM 64.9 °F 61.0 °F 87% 29.73 in 10.0 mi SSE 20.7 mph 33.4 mph N/A   Mostly Cloudy
3:56 PM 64.9 °F 61.0 °F 87% 29.72 in 10.0 mi SSE 19.6 mph 28.8 mph N/A   Overcast
4:56 PM 66.0 °F 61.0 °F 84% 29.71 in 10.0 mi South 21.9 mph 29.9 mph N/A   Overcast
5:15 PM 66.0 °F 61.0 °F 84% 29.71 in 10.0 mi SSE 19.6 mph 26.5 mph N/A   Mostly Cloudy
5:56 PM 66.0 °F 61.0 °F 84% 29.71 in 10.0 mi SSE 17.3 mph 25.3 mph N/A   Mostly Cloudy
7:56 PM 66.0 °F 61.0 °F 84% 29.72 in 10.0 mi SSE 23.0 mph 28.8 mph N/A   Overcast
8:41 PM 64.9 °F 61.0 °F 87% 29.72 in 10.0 mi SSE 19.6 mph 31.1 mph N/A   Overcast
8:56 PM 64.9 °F 61.0 °F 87% 29.73 in 10.0 mi SSE 18.4 mph 26.5 mph N/A   Overcast
9:56 PM 64.4 °F 60.8 °F 88% 29.76 in 10.0 mi SSE 19.6 mph 24.2 mph N/A   Overcast
10:56 PM 63.0 °F 59.0 °F 87% 29.75 in 10.0 mi South 16.1 mph 23.0 mph N/A   Overcast
11:42 PM 62.1 °F 59.0 °F 90% 29.76 in 10.0 mi SSE 12.7 mph 21.9 mph N/A   Overcast
11:56 PM 55.0 °F 50.0 °F 83% 30.01 in 10.0 mi East 12.7 mph - N/A   Mostly Cloudy